Flag Weather past 2 weeks in Tarlac City, Philippines

Now
75 °F

Light rain. Mostly cloudy.


Feels Like: 73 °F
Forecast: 75 / 89 °F
Wind: 6 mph from North

Location: Clarkfield Pampanga International Airport

Current Time: Nov 27, 2014 at 10:58:19 PM

Latest Report: Nov 27, 2014 at 10:00 PM


Visibility: 5 mi

Pressure: 29.95 "Hg

Humidity: 100%

Dew point: 75 °F

Location of Tarlac CityLocation

Historic Weather in Tarlac City — Graph

°F

Tarlac City temperature yesterday

Maximum temperature yesterday: 90 °F (at 1:00 PM)
Minimum temperature yesterday: 75 °F (at 6:00 AM)
Average temperature yesterday: 82 °F

Past Weeks' High & Low Weather Summary

 TemperatureHumidityPressure
High91 °F (Nov 18, 3:00 PM)100% (Nov 15, 10:00 AM)29.98 "Hg (Nov 15, 10:00 AM)
Low73 °F (Nov 13, 2:00 AM)40% (Nov 14, 12:00 PM)29.77 "Hg (Nov 17, 3:00 PM)
Average81 °F75%29.88 "Hg
* Reported Nov 12 9:00 PM — Nov 27 9:00 PM, Tarlac City, Weather by CustomWeather, © 2014

Note: Actual official high and low records may vary slightly from our data, if they occured in-between our weather recording intervals... More about our weather records

Advertising

Tarlac City weather history for previous 24 hours

 ConditionsComfort  
Time TempWeatherWind HumidityBarometerVisibility
9:00 PM
Nov 27
77 °FLight rain. Mostly cloudy.6 mph100%29.95 "Hg6 mi
8:00 PM77 °FRain. Mostly cloudy.2 mph100%29.95 "Hg5 mi
7:00 PM77 °FRain showers. Mostly cloudy.3 mph100%29.89 "HgN/A
6:00 PM79 °FPartly cloudy.3 mph100%29.86 "HgN/A
5:00 PM79 °FBroken clouds.5 mph100%29.83 "HgN/A
4:00 PM79 °FBroken clouds.2 mph100%29.83 "HgN/A
3:00 PM79 °FLight rain. Broken clouds.5 mph100%29.83 "Hg6 mi
2:00 PM84 °FLight rain. Broken clouds.9 mph70%29.83 "Hg6 mi
1:00 PM86 °FSprinkles. Broken clouds.7 mph62%29.83 "Hg6 mi
12:00 PM84 °FPartly sunny.3 mph66%29.86 "Hg6 mi
11:00 AM84 °FMore clouds than sun.10 mph62%29.92 "Hg6 mi
10:00 AM86 °FPartly sunny.10 mph62%29.92 "HgN/A
9:00 AM84 °FPartly sunny.8 mph70%29.92 "HgN/A
8:00 AM81 °FPartly sunny.6 mph74%29.95 "HgN/A
6:00 AM77 °FPartly cloudy.7 mph89%29.86 "HgN/A
5:00 AM77 °FPassing clouds.6 mph79%29.83 "HgN/A
4:00 AM77 °FPassing clouds.6 mph89%29.83 "HgN/A
3:00 AM79 °FMostly cloudy.6 mph84%29.83 "HgN/A
2:00 AM79 °FMostly cloudy.6 mph79%29.83 "HgN/A
1:00 AM79 °FMostly cloudy.6 mph79%29.86 "HgN/A
12:00 AM81 °FPassing clouds.2 mph74%29.89 "HgN/A
11:00 PM
Nov 26
81 °FPassing clouds.2 mph74%29.89 "HgN/A
10:00 PM82 °FPassing clouds.7 mph66%29.89 "HgN/A
Weather by CustomWeather, © 2014

See weather overviewHow to use our weather pages